Date,TemperatureHighF,TemperatureAvgF,TemperatureLowF,DewpointHighF,DewpointAvgF,DewpointLowF,HumidityHigh,HumidityAvg,HumidityLow,PressureMaxIn,PressureMinIn,WindSpeedMaxMPH,WindSpeedAvgMPH,GustSpeedMaxMPH,PrecipitationSumIn
2013-8-1,80,70,62,66,63,59,98,79,50,29.96,29.89,13,1,16,0.00
2013-8-2,82,70,58,68,63,56,96,78,58,29.95,29.84,19,2,24,0.00
2013-8-3,81,72,61,68,63,55,98,77,51,30.03,29.89,11,1,13,0.00
2013-8-4,78,67,54,60,57,52,97,72,44,30.14,30.03,10,0,12,0.00
2013-8-5,77,67,60,66,60,58,95,80,56,30.08,29.91,8,0,9,0.00
2013-8-6,78,71,64,71,66,60,92,83,75,29.93,29.85,9,1,9,0.00
2013-8-7,83,77,70,73,72,68,97,85,71,29.87,29.80,14,2,14,0.00
2013-8-8,76,71,67,73,69,66,98,93,85,29.92,29.84,7,0,8,0.00
2013-8-9,82,74,67,69,67,61,98,79,50,29.98,29.87,5,0,8,0.00
2013-8-10,83,75,65,70,67,64,96,76,54,30.05,29.98,10,1,11,0.00
2013-8-11,83,72,62,69,64,61,98,78,49,30.07,30.01,7,0,10,0.00
2013-8-12,85,74,63,70,67,62,97,80,57,30.04,29.82,11,1,11,0.00
2013-8-13,72,66,56,69,57,50,97,75,47,30.06,29.82,13,1,13,0.00
2013-8-14,72,60,49,55,50,47,93,73,45,30.18,30.05,7,0,9,0.00
2013-8-15,74,62,48,58,52,46,98,72,43,30.16,30.08,4,0,7,0.00
2013-8-16,76,66,55,60,56,53,94,74,49,30.15,30.10,9,0,9,0.00
2013-8-17,80,68,55,61,58,53,93,72,49,30.19,30.12,11,0,11,0.00
2013-8-18,84,72,57,66,60,55,97,70,43,30.16,30.06,7,0,8,0.00
2013-8-19,84,72,58,66,62,57,95,74,52,30.10,30.02,8,0,10,0.00
2013-8-20,85,76,61,67,64,60,97,71,48,30.12,30.04,8,0,9,0.00
2013-8-21,87,76,66,71,67,63,91,75,51,30.10,29.98,9,0,9,0.00
2013-8-22,81,72,68,72,68,66,95,87,69,30.05,29.96,13,0,13,0.02
2013-8-23,84,72,62,70,65,60,98,81,48,30.12,30.01,5,0,6,0.12
2013-8-24,84,70,54,62,58,50,98,69,35,30.25,30.12,9,0,9,0.01
2013-8-25,87,74,60,67,62,58,96,69,43,30.27,30.15,10,1,10,0.00
2013-8-26,88,76,63,74,68,59,90,76,54,30.19,30.01,12,1,12,0.00
2013-8-27,90,81,72,77,73,69,93,78,60,30.02,29.88,13,1,13,0.00
2013-8-28,86,80,74,76,72,69,94,78,64,29.94,29.83,14,2,14,0.00
2013-8-29,88,76,68,73,70,67,98,82,56,30.02,29.94,7,0,7,0.00
2013-8-30,90,78,65,74,69,63,97,76,51,29.95,29.73,13,1,13,0.00
2013-8-31,82,74,69,74,69,67,95,87,69,29.83,29.70,9,1,11,0.09